Wind_Speed
11 9 6 6 7 5 4 4 4 3 3 3 3 3 6 8 9 10 10 11 11 11 12 12 12 13 13 13 13 14 14 13 13 12 10 10 9 9 8 7 7 7 6 5
12 10 8 10 10 8 6 6 6 5 4 3 4 5 5 6 7 8 9 9 10 11 11 11 11 12 12 12 12 13 14 14 14 13 12 11 10 10 9 8 8 7 7 6
15 10 10 11 11 9 8 7 8 6 4 2 5 7 7 6 7 7 8 9 9 10 11 10 10 10 11 11 11 12 12 13 13 14 14 13 12 11 10 9 8 8 7 7
16 14 14 14 13 11 9 8 9 7 5 5 7 9 9 8 8 8 8 9 9 9 10 10 9 9 10 10 10 11 11 12 13 13 14 14 13 12 11 10 9 8 8 7
19 17 16 17 14 12 12 11 11 8 7 7 9 11 10 11 10 8 9 9 9 9 9 9 9 8 9 9 9 10 10 11 12 12 13 13 13 12 12 11 10 9 9 8
21 18 18 18 15 15 14 12 10 7 7 9 10 12 12 10 10 10 10 9 8 8 8 8 8 8 8 9 9 9 9 10 11 12 12 13 12 12 12 12 11 9 9 8
23 21 20 19 18 18 16 13 11 10 9 10 10 11 14 13 12 13 11 10 9 8 8 8 8 8 8 9 9 9 9 10 10 11 12 12 12 12 12 12 11 10 10 9
23 24 22 22 21 19 18 16 14 12 11 11 10 10 14 14 13 14 12 11 10 9 9 8 8 9 9 9 9 9 9 10 10 11 11 12 12 12 12 12 11 11 10 10
23 22 21 22 21 21 20 19 16 14 13 12 11 11 13 15 15 14 13 12 11 10 10 10 10 10 9 9 9 9 9 10 10 11 12 11 11 11 12 12 12 11 11 10
25 24 22 23 24 24 23 20 18 18 17 16 14 13 14 17 17 15 14 13 13 12 11 11 11 10 10 10 10 10 10 10 11 11 12 12 12 12 12 12 13 12 12 12
29 27 24 24 26 24 24 23 22 21 20 18 16 16 15 19 17 16 15 14 14 14 12 12 12 12 11 11 11 11 11 12 12 12 12 13 13 13 13 13 13 13 13 13
32 31 29 27 26 24 24 24 23 24 23 22 20 18 17 19 17 17 18 17 16 16 15 13 13 13 13 12 12 13 13 13 13 13 14 14 14 13 13 13 13 13 13 13
33 33 31 29 28 28 28 26 25 25 24 23 22 21 20 19 19 19 19 18 17 18 17 16 16 15 15 15 16 15 15 15 15 15 15 15 15 15 14 14 14 14 14 13
35 36 34 32 30 27 27 26 26 26 26 25 24 23 22 22 22 22 20 20 20 21 20 19 19 18 17 18 17 18 18 17 17 17 17 17 17 17 16 15 15 15 15 14
37 37 37 34 31 28 28 28 28 29 28 28 27 26 26 23 24 23 22 22 21 22 21 22 21 20 20 20 20 20 20 19 19 19 18 18 18 18 17 17 17 16 16 16
38 38 37 37 34 31 31 30 28 29 29 29 28 27 27 27 27 26 25 24 23 23 23 23 23 23 23 22 21 21 21 21 21 21 20 20 20 20 19 20 19 18 18 18
38 38 37 37 36 34 35 33 31 30 30 30 30 30 28 30 32 30 29 27 26 25 26 26 25 24 24 24 23 23 24 24 23 23 22 22 22 22 21 21 21 21 21 21
38 38 38 36 35 38 37 33 32 31 31 31 31 31 31 31 31 31 30 29 27 27 28 28 28 27 26 26 26 25 26 26 25 25 24 24 23 23 23 23 23 23 23 23
39 39 38 37 37 38 37 34 33 32 33 34 33 32 33 34 33 33 30 30 29 28 29 29 30 29 29 28 28 28 28 28 27 26 26 26 26 25 26 26 25 26 26 25
39 40 40 39 38 38 36 35 33 33 36 37 37 36 36 36 36 36 34 33 33 31 31 31 32 32 31 31 30 30 30 30 29 28 27 28 29 29 28 28 28 28 28 28
38 40 41 40 40 39 36 35 35 37 39 38 37 38 39 39 39 39 38 37 36 35 34 34 34 34 34 33 32 31 31 31 30 30 30 30 31 31 31 30 30 29 29 29
37 38 40 41 40 40 39 38 38 39 39 39 38 39 40 40 40 41 41 40 38 37 37 36 36 35 35 35 34 33 32 32 31 31 31 31 31 31 31 31 31 31 31 31
37 39 39 39 40 40 41 42 41 41 40 40 40 41 41 41 41 42 41 40 39 39 38 38 37 37 36 36 35 34 33 33 33 32 32 32 32 32 32 32 32 32 32 32
37 38 41 41 41 41 41 41 43 43 42 42 41 42 42 41 41 41 41 40 39 38 38 38 38 37 36 36 36 35 34 34 34 34 33 33 33 33 33 33 33 33 32 33
36 39 41 41 41 43 44 44 44 45 45 44 43 41 40 40 39 39 39 39 39 39 39 39 38 37 37 38 38 37 36 35 34 34 34 34 34 34 34 34 33 33 34 34
37 39 40 42 42 44 44 44 43 44 44 44 43 42 40 40 39 39 39 39 39 39 39 40 40 39 38 39 38 38 37 36 35 35 35 35 35 35 35 34 34 33 33 33
Wind_Direction
188 193 191 197 210 215 205 202 227 237 279 308 308 337 9 3 1 8 9 10 17 22 24 24 25 27 30 31 31 31 31 31 30 30 29 28 30 26 27 27 25 28 27 21
205 209 209 217 214 209 219 224 239 250 256 286 305 311 335 346 348 349 353 358 3 10 15 16 18 22 26 28 29 30 29 30 31 30 30 31 29 27 28 26 23 22 20 21
214 211 220 222 214 218 218 234 235 240 252 272 292 289 297 314 318 332 340 346 355 2 6 11 11 15 19 23 24 26 28 29 30 30 29 27 26 25 24 23 21 17 13 9
215 213 222 226 224 218 224 234 243 237 248 259 269 278 285 290 305 323 335 344 355 356 357 2 2 8 12 17 20 23 23 24 25 25 24 23 23 22 19 16 14 11 8 7
218 216 222 226 222 224 225 231 237 229 242 254 264 276 278 285 296 309 323 333 341 349 351 355 358 5 8 13 15 18 17 15 15 15 17 17 18 18 16 14 9 6 7 5
220 219 226 228 223 226 226 229 234 229 240 257 256 262 272 267 285 302 311 316 323 335 346 351 353 356 1 5 6 9 10 7 7 7 8 11 12 11 9 9 6 2 0 357
222 222 226 230 227 228 226 228 239 237 244 258 252 253 265 265 278 291 298 302 310 320 330 335 340 344 347 352 357 2 2 1 360 359 0 2 3 4 3 0 359 357 353 349
227 227 225 230 228 228 229 228 234 237 242 255 256 256 272 274 278 285 290 297 302 309 315 320 324 329 334 339 345 351 355 356 355 352 351 353 354 355 356 354 351 350 349 346
221 230 233 234 229 227 226 228 234 239 247 253 251 252 263 269 273 277 282 287 296 302 306 310 312 317 322 325 332 338 342 346 348 346 344 345 345 346 347 347 344 342 341 340
220 224 226 231 231 229 227 227 235 238 242 244 248 249 254 263 270 278 282 280 289 297 302 303 305 306 310 312 318 325 329 331 335 337 338 338 339 338 338 339 338 335 332 332
220 223 222 228 234 233 232 227 227 234 240 243 247 247 258 266 267 274 278 281 285 291 293 297 301 303 305 305 309 315 317 319 323 327 330 331 332 332 331 330 330 330 327 324
222 224 225 228 233 234 232 233 230 233 236 238 245 253 252 262 266 272 273 274 279 284 289 293 295 296 300 302 306 309 312 313 314 317 320 322 323 324 324 323 321 321 321 320
224 225 226 227 227 231 232 231 232 235 240 241 243 248 254 255 261 265 270 274 277 279 282 285 288 291 295 297 300 304 306 306 307 308 311 314 314 315 316 317 316 313 312 312
227 228 227 227 228 233 240 235 233 234 238 244 245 249 251 257 255 259 264 268 272 275 277 279 284 288 291 295 296 297 298 299 301 302 305 308 309 309 308 310 310 309 307 307
225 228 228 227 228 229 236 236 233 234 236 243 245 248 252 259 257 259 261 264 268 271 274 277 281 284 286 290 292 292 294 295 297 298 299 300 303 305 305 305 305 304 303 305
228 229 230 229 229 231 232 233 235 237 237 243 247 247 251 255 256 258 262 263 266 269 270 273 276 279 282 285 287 289 290 291 292 293 294 295 297 298 300 302 301 300 300 301
229 230 230 232 232 233 236 236 234 238 240 242 245 247 248 254 259 259 260 262 265 267 268 270 273 276 279 282 284 286 289 289 289 289 290 291 292 294 295 297 297 297 297 296
230 230 231 233 234 236 237 239 239 238 240 241 242 243 245 250 255 259 261 261 262 265 268 269 273 275 276 279 281 283 285 287 286 286 287 287 289 291 293 294 295 295 295 295
231 232 232 232 236 241 239 239 240 241 242 243 244 243 244 247 252 256 259 260 262 264 266 268 270 273 275 278 279 280 281 283 283 285 285 286 287 288 289 291 292 293 293 294
232 233 234 233 234 238 240 241 240 241 244 243 244 245 246 247 250 254 256 259 261 263 266 268 270 272 274 277 278 278 278 278 280 281 282 284 285 286 286 288 290 290 291 291
234 235 235 235 236 238 240 241 242 241 243 245 245 246 246 248 250 253 256 257 260 262 264 266 268 270 273 274 275 276 277 277 277 279 281 283 283 284 285 286 288 289 289 289
235 236 236 235 237 238 240 240 240 243 246 246 246 248 249 251 253 256 258 259 260 261 262 264 266 268 270 271 273 274 275 275 275 277 279 281 283 283 284 285 286 286 287 289
234 234 237 237 237 239 239 239 241 243 244 246 248 249 250 252 253 256 258 260 260 259 261 263 264 265 266 268 270 272 272 272 273 275 276 279 281 283 283 284 283 284 285 287
235 234 235 237 238 238 238 238 240 243 246 247 248 249 251 253 254 256 258 259 259 259 260 262 263 263 264 266 268 269 270 271 272 273 275 277 280 282 283 283 283 283 284 284
236 236 237 238 239 239 239 241 243 246 247 248 248 250 253 254 255 256 258 259 259 260 260 260 261 263 265 266 267 268 268 269 271 273 275 277 279 281 282 283 284 284 284 283
235 236 237 238 238 240 241 245 246 247 249 250 250 250 251 253 254 255 256 258 259 260 261 260 261 264 265 266 267 267 268 270 272 275 276 277 278 279 280 282 283 283 283 283
Height
5913 5916 5918 5921 5924 5926 5927 5929 5930 5931 5930 5929 5928 5926 5926 5924 5922 5920 5918 5916 5915 5914 5912 5911 5909 5908 5906 5904 5903 5902 5900 5899 5897 5896 5895 5894 5893 5892 5891 5889 5889 5888 5887 5886
5913 5915 5918 5921 5923 5925 5927 5929 5929 5930 5930 5929 5928 5926 5926 5925 5924 5922 5920 5918 5916 5915 5914 5912 5911 5910 5908 5907 5905 5904 5902 5901 5899 5898 5896 5895 5894 5893 5892 5891 5890 5889 5888 5887
5911 5915 5917 5919 5921 5923 5925 5927 5928 5928 5929 5928 5928 5927 5926 5925 5924 5923 5922 5919 5917 5915 5915 5914 5912 5911 5910 5908 5907 5906 5905 5903 5902 5900 5898 5897 5895 5894 5893 5892 5891 5890 5889 5888
5908 5912 5915 5917 5919 5922 5924 5926 5925 5927 5928 5928 5929 5926 5924 5923 5923 5922 5921 5920 5918 5917 5915 5915 5913 5912 5911 5910 5908 5907 5906 5905 5903 5902 5900 5899 5897 5896 5894 5893 5892 5891 5890 5888
5905 5909 5912 5914 5917 5920 5922 5923 5924 5925 5926 5927 5928 5926 5923 5921 5921 5921 5921 5920 5919 5918 5916 5915 5914 5912 5912 5911 5909 5908 5907 5906 5905 5903 5902 5900 5898 5897 5896 5894 5893 5892 5891 5889
5901 5905 5909 5911 5914 5917 5919 5921 5921 5923 5924 5926 5927 5926 5923 5921 5920 5920 5921 5920 5919 5918 5917 5915 5915 5914 5913 5912 5910 5909 5908 5907 5906 5904 5903 5901 5900 5898 5896 5895 5893 5892 5891 5890
5897 5901 5905 5908 5911 5914 5916 5919 5920 5921 5922 5924 5924 5923 5922 5920 5921 5921 5920 5920 5919 5918 5917 5916 5915 5914 5913 5912 5911 5910 5909 5907 5906 5905 5903 5902 5900 5898 5897 5895 5894 5892 5891 5890
5895 5898 5901 5904 5907 5911 5913 5916 5918 5919 5921 5922 5921 5921 5920 5919 5919 5919 5918 5918 5918 5917 5916 5915 5914 5913 5913 5912 5911 5910 5908 5907 5906 5905 5903 5902 5900 5899 5897 5895 5894 5892 5891 5890
5891 5895 5898 5900 5903 5907 5909 5912 5915 5916 5917 5918 5919 5919 5918 5917 5917 5917 5917 5916 5916 5916 5915 5914 5913 5913 5912 5911 5910 5909 5908 5907 5906 5904 5902 5901 5900 5898 5897 5895 5894 5892 5891 5889
5886 5889 5893 5896 5899 5901 5905 5909 5911 5912 5914 5915 5917 5916 5914 5913 5914 5914 5913 5913 5914 5914 5913 5913 5912 5911 5910 5910 5909 5908 5907 5906 5905 5903 5902 5900 5899 5897 5896 5894 5893 5891 5890 5889
5880 5884 5888 5891 5892 5897 5900 5903 5906 5909 5910 5912 5912 5914 5912 5910 5911 5912 5911 5911 5911 5911 5911 5911 5910 5909 5908 5907 5906 5906 5905 5904 5903 5902 5901 5899 5898 5896 5895 5893 5892 5890 5889 5887
5873 5878 5881 5885 5888 5891 5895 5898 5901 5903 5905 5906 5907 5911 5908 5907 5907 5908 5909 5909 5909 5909 5908 5908 5907 5906 5905 5904 5903 5904 5903 5902 5901 5900 5899 5897 5896 5895 5893 5891 5890 5888 5887 5885
5867 5871 5874 5879 5884 5886 5888 5892 5895 5898 5900 5901 5904 5906 5903 5903 5904 5904 5904 5905 5905 5905 5905 5904 5904 5904 5903 5902 5902 5901 5900 5899 5898 5897 5896 5895 5893 5892 5891 5889 5887 5886 5884 5883
5859 5863 5867 5872 5877 5880 5882 5885 5888 5891 5893 5895 5898 5899 5899 5899 5899 5899 5899 5901 5901 5901 5901 5901 5901 5900 5899 5899 5899 5898 5897 5896 5895 5894 5893 5892 5890 5889 5887 5886 5884 5883 5881 5880
5850 5854 5858 5863 5868 5872 5875 5878 5881 5884 5887 5890 5892 5893 5893 5894 5893 5894 5894 5895 5896 5896 5897 5896 5896 5896 5895 5895 5895 5894 5893 5892 5891 5890 5889 5888 5886 5885 5883 5882 5881 5879 5878 5877
5842 5846 5851 5855 5860 5864 5867 5870 5874 5877 5880 5882 5884 5886 5886 5886 5885 5887 5888 5889 5890 5891 5891 5891 5891 5891 5890 5890 5890 5889 5888 5887 5886 5885 5884 5883 5882 5881 5879 5878 5877 5875 5874 5873
5833 5838 5843 5847 5852 5855 5858 5862 5866 5870 5872 5875 5876 5880 5880 5879 5879 5880 5881 5882 5884 5884 5885 5885 5885 5885 5885 5885 5884 5884 5883 5882 5881 5880 5879 5878 5877 5876 5874 5873 5872 5870 5869 5868
5825 5829 5834 5839 5843 5845 5853 5856 5859 5861 5863 5866 5868 5870 5872 5872 5872 5873 5874 5875 5876 5877 5877 5878 5878 5878 5879 5878 5878 5878 5877 5876 5875 5874 5873 5872 5871 5870 5869 5868 5866 5865 5864 5862
5816 5820 5825 5830 5833 5837 5843 5847 5850 5852 5854 5856 5859 5861 5863 5863 5865 5865 5865 5867 5868 5869 5870 5870 5871 5871 5871 5871 5871 5871 5870 5869 5868 5867 5866 5865 5864 5863 5862 5861 5860 5858 5857 5856
5807 5811 5816 5820 5824 5828 5834 5837 5840 5843 5843 5846 5849 5851 5853 5854 5856 5857 5858 5859 5860 5861 5862 5862 5863 5863 5863 5863 5863 5863 5862 5861 5861 5860 5859 5858 5857 5855 5854 5853 5852 5850 5849 5848
5797 5801 5806 5810 5813 5818 5824 5826 5830 5833 5833 5835 5838 5840 5842 5844 5846 5847 5848 5851 5852 5853 5854 5854 5854 5854 5855 5855 5855 5854 5854 5853 5852 5852 5851 5850 5848 5847 5846 5845 5844 5842 5841 5840
5789 5793 5796 5800 5804 5810 5812 5816 5819 5820 5822 5825 5828 5830 5832 5835 5836 5837 5839 5841 5842 5844 5845 5845 5845 5846 5846 5845 5846 5846 5845 5845 5844 5843 5842 5841 5839 5838 5837 5836 5835 5834 5833 5832
5779 5784 5787 5791 5795 5798 5801 5804 5806 5809 5812 5815 5817 5820 5822 5824 5827 5828 5829 5831 5832 5833 5835 5835 5835 5836 5836 5836 5836 5836 5836 5835 5835 5834 5833 5832 5831 5829 5828 5827 5826 5825 5824 5823
5769 5772 5775 5779 5783 5787 5790 5792 5794 5797 5801 5804 5807 5809 5812 5814 5816 5818 5819 5820 5821 5822 5824 5825 5825 5825 5825 5826 5827 5826 5826 5826 5825 5825 5824 5823 5822 5820 5819 5818 5817 5815 5815 5813
5759 5762 5764 5768 5772 5775 5778 5781 5785 5788 5790 5793 5796 5799 5801 5803 5805 5807 5809 5810 5811 5812 5813 5814 5814 5815 5815 5816 5816 5816 5816 5816 5815 5815 5814 5813 5812 5811 5810 5808 5807 5806 5805 5804
5748 5751 5754 5757 5760 5763 5767 5770 5773 5776 5779 5783 5786 5788 5790 5792 5794 5796 5798 5799 5800 5801 5802 5803 5804 5805 5805 5806 5806 5806 5806 5806 5805 5805 5804 5803 5802 5801 5800 5799 5798 5796 5796 5794